sat.trackr.live / text

‹ back to catalog

STARLINK-37057

NORAD 68161 · 2026-049V

PAYLOAD ACTIVE UNKNOWN

§ Identity

Operator
Country
US
Launch date
2026-03-13
Launch site
AFWTR
Launch vehicle
Mass (kg)
RCS (m²)

Purposes: comms

External: N2YO · Heavens-Above · Gunter

§ Orbital elements

Epoch: 2026-05-25T00:42:49.618080Z

Period
93.91 min
Inclination
97.2844°
Eccentricity
0.0001381
Mean motion
15.33449603 rev/d
Perigee alt
464.6 km
Apogee alt
466.5 km
Semi-major
6,843.7 km
B*
6.9544e-4
RAAN
166.6453°
Arg perigee
100.9689°
Mean anomaly
259.1710°
Rev number
1,134

§ Raw data

STARLINK-370571 68161U 26049V   26145.02974095  .00022447  00000+0  69544-3 0  99962 68161  97.2844 166.6453 0001381 100.9689 259.1710 15.33449603 11347

JSON: /api/v1/satellites/68161 · /tle

For live sub-satellite position, see the globe view (requires WebGL).

§ Visibility from observer

Set your observer location to see the next 7 days of passes ≥ 10°. The values pass through the URL so the page stays shareable.

No JS? Fill the form by hand. The geolocation button needs JavaScript.